Stündliche Wetter Abram-Tyube

Heute, 18 Juni, Freitag

Zeit Temperatur Niederschläge Wind Luftdruck Luftfeuchtigkeit
00:00 +22°C° 0 mm 7 m/S 754 mmHg 68%
01:00 +21°C° 0 mm 7 m/S 754 mmHg 68%
02:00 +21°C° 0 mm 6 m/S 754 mmHg 69%
03:00 +21°C° 0 mm 6 m/S 754 mmHg 70%
04:00 +21°C° 0 mm 6 m/S 754 mmHg 70%
05:00 +21°C° 0 mm 6 m/S 755 mmHg 70%
06:00 +21°C° 0 mm 6 m/S 755 mmHg 70%
07:00 +23°C° 0 mm 6 m/S 755 mmHg 64%
08:00 +24°C° 0 mm 6 m/S 755 mmHg 59%
09:00 +27°C° 0 mm 5 m/S 755 mmHg 53%
10:00 +28°C° 0 mm 5 m/S 755 mmHg 49%
11:00 +30°C° 0 mm 4 m/S 754 mmHg 45%
12:00 +32°C° 0 mm 4 m/S 754 mmHg 41%
13:00 +33°C° 0 mm 3 m/S 754 mmHg 40%
14:00 +34°C° 0 mm 3 m/S 754 mmHg 39%
15:00 +34°C° 0 mm 2 m/S 754 mmHg 37%
16:00 +34°C° 0 mm 2 m/S 754 mmHg 38%
17:00 +34°C° 0 mm 2 m/S 754 mmHg 38%
18:00 +33°C° 0 mm 1 m/S 754 mmHg 38%
19:00 +32°C° 0 mm 2 m/S 754 mmHg 43%
20:00 +30°C° 0 mm 3 m/S 754 mmHg 47%
21:00 +29°C° 0 mm 4 m/S 754 mmHg 52%
22:00 +28°C° 0 mm 3 m/S 755 mmHg 56%
23:00 +27°C° 0 mm 3 m/S 755 mmHg 60%

Morgen, 19 Juni, Samstag

Zeit Temperatur Niederschläge Wind Luftdruck Luftfeuchtigkeit
00:00 +27°C° 0 mm 2 m/S 755 mmHg 64%
01:00 +26°C° 0 mm 3 m/S 755 mmHg 67%
02:00 +26°C° 0 mm 3 m/S 755 mmHg 71%
03:00 +25°C° 0 mm 3 m/S 755 mmHg 74%
04:00 +26°C° 0 mm 4 m/S 755 mmHg 73%
05:00 +26°C° 0 mm 4 m/S 755 mmHg 72%
06:00 +26°C° 0 mm 5 m/S 755 mmHg 71%
07:00 +28°C° 0 mm 6 m/S 755 mmHg 63%
08:00 +29°C° 0 mm 6 m/S 755 mmHg 55%
09:00 +32°C° 0 mm 7 m/S 755 mmHg 47%
10:00 +33°C° 0 mm 8 m/S 754 mmHg 42%
11:00 +34°C° 0 mm 9 m/S 754 mmHg 37%
12:00 +36°C° 0 mm 10 m/S 754 mmHg 31%
13:00 +36°C° 0 mm 10 m/S 754 mmHg 31%
14:00 +36°C° 0 mm 11 m/S 753 mmHg 30%
15:00 +36°C° 0 mm 11 m/S 753 mmHg 30%
16:00 +34°C° 0 mm 11 m/S 753 mmHg 34%
17:00 +32°C° 0 mm 10 m/S 753 mmHg 37%
18:00 +31°C° 0 mm 10 m/S 753 mmHg 41%
19:00 +29°C° 0 mm 9 m/S 754 mmHg 46%
20:00 +27°C° 0 mm 9 m/S 754 mmHg 50%
21:00 +26°C° 0 mm 8 m/S 754 mmHg 55%
22:00 +24°C° 0 mm 7 m/S 754 mmHg 55%
23:00 +24°C° 0 mm 7 m/S 753 mmHg 54%

übermorgen, 20 Juni, Sonntag

Zeit Temperatur Niederschläge Wind Luftdruck Luftfeuchtigkeit
00:00 +24°C° 0 mm 6 m/S 753 mmHg 54%
01:00 +24°C° 0 mm 6 m/S 753 mmHg 56%
02:00 +24°C° 0 mm 6 m/S 753 mmHg 58%
03:00 +24°C° 0 mm 6 m/S 752 mmHg 61%
04:00 +24°C° 0 mm 6 m/S 752 mmHg 60%
05:00 +26°C° 0 mm 6 m/S 752 mmHg 59%
06:00 +26°C° 0 mm 6 m/S 752 mmHg 58%
07:00 +28°C° 0 mm 7 m/S 752 mmHg 50%
08:00 +32°C° 0 mm 7 m/S 752 mmHg 43%
09:00 +34°C° 0 mm 8 m/S 751 mmHg 35%
10:00 +35°C° 0 mm 8 m/S 751 mmHg 31%
11:00 +38°C° 0 mm 9 m/S 751 mmHg 27%
12:00 +39°C° 0 mm 10 m/S 751 mmHg 23%
13:00 +39°C° 0 mm 11 m/S 751 mmHg 24%
14:00 +39°C° 0 mm 11 m/S 751 mmHg 24%
15:00 +38°C° 0 mm 12 m/S 751 mmHg 25%
16:00 +37°C° 0 mm 11 m/S 751 mmHg 26%
17:00 +34°C° 0 mm 10 m/S 751 mmHg 27%
18:00 +33°C° 0 mm 10 m/S 752 mmHg 28%
19:00 +32°C° 0 mm 9 m/S 752 mmHg 29%
20:00 +29°C° 0 mm 9 m/S 752 mmHg 29%
21:00 +28°C° 0 mm 8 m/S 753 mmHg 30%
22:00 +28°C° 0 mm 8 m/S 752 mmHg 35%
23:00 +27°C° 0 mm 7 m/S 752 mmHg 39%

21 Juni, Montag

Zeit Temperatur Niederschläge Wind Luftdruck Luftfeuchtigkeit
00:00 +26°C° 0 mm 7 m/S 752 mmHg 44%
01:00 +26°C° 0 mm 7 m/S 752 mmHg 44%
02:00 +26°C° 0 mm 6 m/S 752 mmHg 45%
03:00 +24°C° 0 mm 6 m/S 752 mmHg 46%
04:00 +26°C° 0 mm 6 m/S 752 mmHg 46%
05:00 +26°C° 0 mm 6 m/S 752 mmHg 46%
06:00 +26°C° 0 mm 5 m/S 752 mmHg 46%
07:00 +28°C° 0 mm 6 m/S 752 mmHg 39%
08:00 +32°C° 0 mm 8 m/S 752 mmHg 32%
09:00 +34°C° 0 mm 9 m/S 751 mmHg 25%
10:00 +37°C° 0 mm 10 m/S 751 mmHg 22%
11:00 +38°C° 0 mm 11 m/S 751 mmHg 18%
12:00 +41°C° 0 mm 12 m/S 751 mmHg 14%
13:00 +41°C° 0 mm 12 m/S 750 mmHg 14%
14:00 +41°C° 0 mm 12 m/S 750 mmHg 13%
15:00 +41°C° 0 mm 13 m/S 750 mmHg 13%
16:00 +38°C° 0 mm 12 m/S 750 mmHg 14%
17:00 +37°C° 0 mm 11 m/S 750 mmHg 16%
18:00 +34°C° 0 mm 10 m/S 750 mmHg 18%
19:00 +33°C° 0 mm 10 m/S 751 mmHg 21%
20:00 +31°C° 0 mm 9 m/S 751 mmHg 25%
21:00 +28°C° 0 mm 8 m/S 751 mmHg 28%
22:00 +28°C° 0 mm 7 m/S 751 mmHg 32%
23:00 +27°C° 0 mm 7 m/S 751 mmHg 35%

22 Juni, Dienstag

Zeit Temperatur Niederschläge Wind Luftdruck Luftfeuchtigkeit
00:00 +26°C° 0 mm 6 m/S 751 mmHg 38%
01:00 +26°C° 0 mm 5 m/S 751 mmHg 41%
02:00 +25°C° 0 mm 5 m/S 751 mmHg 44%
03:00 +25°C° 0 mm 4 m/S 751 mmHg 46%
04:00 +25°C° 0 mm 4 m/S 751 mmHg 47%
05:00 +25°C° 0 mm 4 m/S 751 mmHg 48%
06:00 +25°C° 0 mm 4 m/S 751 mmHg 49%
07:00 +27°C° 0 mm 4 m/S 751 mmHg 43%
08:00 +29°C° 0 mm 4 m/S 751 mmHg 38%
09:00 +32°C° 0 mm 4 m/S 751 mmHg 32%
10:00 +34°C° 0 mm 5 m/S 751 mmHg 28%
11:00 +36°C° 0 mm 5 m/S 751 mmHg 23%
12:00 +39°C° 0 mm 5 m/S 751 mmHg 19%
13:00 +41°C° 0 mm 6 m/S 750 mmHg 16%
14:00 +43°C° 0 mm 7 m/S 750 mmHg 13%
15:00 +44°C° 0 mm 8 m/S 750 mmHg 10%
16:00 +41°C° 0 mm 8 m/S 750 mmHg 12%
17:00 +40°C° 0 mm 8 m/S 750 mmHg 14%
18:00 +38°C° 0 mm 8 m/S 751 mmHg 16%
19:00 +35°C° 0 mm 7 m/S 751 mmHg 22%
20:00 +33°C° 0 mm 6 m/S 752 mmHg 27%
21:00 +29°C° 0 mm 5 m/S 752 mmHg 32%
22:00 +28°C° 0 mm 5 m/S 752 mmHg 37%
23:00 +28°C° 0 mm 5 m/S 752 mmHg 41%

23 Juni, Mittwoch

Zeit Temperatur Niederschläge Wind Luftdruck Luftfeuchtigkeit
00:00 +27°C° 0 mm 5 m/S 752 mmHg 45%
01:00 +26°C° 0 mm 4 m/S 752 mmHg 46%
02:00 +26°C° 0 mm 4 m/S 752 mmHg 47%
03:00 +25°C° 0 mm 3 m/S 752 mmHg 48%
04:00 +25°C° 0 mm 3 m/S 753 mmHg 48%
05:00 +26°C° 0 mm 3 m/S 753 mmHg 49%
06:00 +26°C° 0 mm 2 m/S 753 mmHg 49%
07:00 +29°C° 0 mm 3 m/S 753 mmHg 43%
08:00 +32°C° 0 mm 4 m/S 753 mmHg 36%
09:00 +35°C° 0 mm 5 m/S 753 mmHg 30%
10:00 +37°C° 0 mm 5 m/S 753 mmHg 25%
11:00 +40°C° 0 mm 6 m/S 753 mmHg 21%
12:00 +43°C° 0 mm 7 m/S 752 mmHg 17%
13:00 +43°C° 0 mm 8 m/S 752 mmHg 17%
14:00 +43°C° 0 mm 9 m/S 752 mmHg 17%
15:00 +43°C° 0 mm 10 m/S 751 mmHg 18%
16:00 +42°C° 0 mm 10 m/S 751 mmHg 20%
17:00 +40°C° 0 mm 9 m/S 752 mmHg 22%
18:00 +39°C° 0 mm 9 m/S 752 mmHg 24%
19:00 +35°C° 0 mm 8 m/S 752 mmHg 30%
20:00 +33°C° 0 mm 8 m/S 753 mmHg 36%
21:00 +30°C° 0 mm 7 m/S 753 mmHg 43%
22:00 +29°C° 0 mm 7 m/S 753 mmHg 44%
23:00 +29°C° 0 mm 6 m/S 753 mmHg 45%
Mehr zeigen

Wir brauchen deine Erlaubnis

Meteoprog und unser Service Anbieter werden persönliche Daten aufbewahren, so wie Cookies, Geräte Bezeichnung oder ähnliche Technologien von deinem Gerät und Prozess, so wie Persönliche Daten Inhalte und Werbungen, genauso wie social Media und den Verkehr zu analysieren.

  • Aufbewahrung und/oder Zugang zu deiner Geräte Informationen.

    Cookies, Geräte Bezeichnung oder andere Informationen, können aufbewahrt oder Zugang zu deinem Gerät erhalten, für den Grund, der oben angegeben wird.

  • Personalisierte Werbung und Inhalte, Messungen, Einblick in das Publikum und Produkt Entwicklung.

    Werbungen und Inhalte können personalisiert werden, basierend auf ein Profil. Mehr Daten können besser personalisierte Werbungen und Inhalte hinzufügen. Werbung und Inhalte können gezeigt und gemessen werden. Einblicke über das Publikum, welche die Werbung gesehen haben und den Inhalt, können abgeleitet werden. So wie Daten können genutzt werden, um es zu verbessern oder die Benutzer Erfahrung zu verbessern das System und die Software.

Wenn du “Ich stimme zu” klickst, erlaubst du uns, die Cookies zu benutzen die Geräte Bezeichnung, den Web oder ähnliche Technologien zu benutzen. Deine Settings, können in deinem Gerät bei deinem Browser geändert werden.

Für den bestimmten Zweck, berechtigten Interessen beruhen darauf, mehr als auf den Inhalt. Du kannst mehr darüber in unseren Privaten und Cookie Politik lesen.